C/2018 K1 ( Weiland )

Japanese version
Home page
Updated on September 22, 2018

---------------------------------------------------------------------

* Profile

Discovery Date May 25, 2018
Magnitude 17.1 mag
Discoverer Henry Weiland (Asteroid Terrestrial-impact Last Alert System (ATLAS) search program)

* Pictures

* Orbital Elements

Epoch 2018 Mar. 23.0 TT = JDT 2458200.5
T 2018 Apr. 6.89556 TT                                  MPCW
q   1.8791485            (2000.0)            P               Q
n   0.00603493     Peri.  325.00161     +0.40126020     -0.87579872
a  29.8782178      Node   260.00177     -0.76591719     -0.48144320
e   0.9371064      Incl.  164.19267     -0.50235557     +0.03448246
P 163
From 75 observations 2017 Nov. 6-2018 May 30, mean residual 0".4.

* Finding Charts

* Magnitudes Graph

        m1 = 8.2 + 5 log d + 25.0 log r

---------------------------------------------------------------------

The orbital elements are published on M.P.E.C. 2018-K117.
The charts are made with StellaNavigator Ver.10 (AstroArts).
The magnitudes graphs are made with Comet for Windows.

---------------------------------------------------------------------

Copyright(C) Seiichi Yoshida (comet@aerith.net). All rights reserved.